Flag for Monaco Weather past 2 weeks in Monaco, Monaco

Now
64 °F

Partly cloudy.


Feels Like: 64 °F
Forecast: 58 / 71 °F
Wind: 7 mph from North

Location: Nice Airport

Current Time: May 25, 2015 at 2:10:06 AM

Latest Report: May 25, 2015 at 1:30 AM


Visibility: N/A

Pressure: 29.95 "Hg

Humidity: 68%

Dew point: 54 °F

Location of MonacoLocation

Historic Weather in Monaco — Graph

°F

Monaco temperature yesterday

Maximum temperature yesterday: 68 °F (at 1:00 PM)
Minimum temperature yesterday: 61 °F (at 4:30 AM)
Average temperature yesterday: 65 °F

Past Weeks' High & Low Weather Summary

 TemperatureHumidityPressure
High77 °F (May 17, 11:00 AM)94% (May 15, 4:30 AM)30.27 "Hg (May 15, 4:30 AM)
Low52 °F (May 21, 5:30 AM)23% (May 15, 5:30 PM)29.47 "Hg (May 15, 4:00 PM)
Average66 °F66%29.95 "Hg
* Reported May 10 1:00 AM — May 25 1:00 AM, Monaco, Weather by CustomWeather, © 2015

Note: Actual official high and low records may vary slightly from our data, if they occured in-between our weather recording intervals... More about our weather records

Advertising

Monaco weather history for previous 24 hours

 ConditionsComfort  
Time TempWeatherWind HumidityBarometerVisibility
1:00 AM
Mon, May 25
64 °FPartly cloudy.5 mph68%29.95 "HgN/A
12:30 AM64 °FPartly cloudy.5 mph68%29.95 "HgN/A
12:00 AM64 °FPartly cloudy.3 mph68%29.95 "HgN/A
11:30 PM
Sun, May 24
64 °FPartly cloudy.5 mph68%29.98 "HgN/A
11:00 PM64 °FPartly cloudy.3 mph64%29.98 "HgN/A
10:30 PM66 °FPartly cloudy.5 mph56%29.98 "HgN/A
10:04 PM66 °FPartly cloudy.2 mph60%29.98 "HgN/A
9:30 PM64 °FBroken clouds.6 mph73%29.98 "HgN/A
9:00 PM64 °FBroken clouds.6 mph73%29.95 "HgN/A
8:30 PM66 °FBroken clouds.6 mph60%29.95 "HgN/A
8:00 PM66 °FBroken clouds.8 mph64%29.95 "HgN/A
7:30 PM66 °FPartly sunny.7 mph64%29.95 "HgN/A
7:00 PM66 °FPartly sunny.7 mph64%29.95 "HgN/A
6:30 PM66 °FPartly sunny.6 mph64%29.95 "HgN/A
6:00 PM66 °FBroken clouds.6 mph64%29.98 "HgN/A
5:30 PM66 °FBroken clouds.5 mph60%29.98 "HgN/A
5:00 PM66 °FBroken clouds.3 mph60%29.98 "HgN/A
4:30 PM64 °FPartly sunny.5 mph68%29.98 "HgN/A
4:00 PM66 °FPartly sunny.7 mph64%29.98 "HgN/A
3:30 PM66 °FPartly sunny.8 mph60%29.98 "HgN/A
3:00 PM66 °FPartly sunny.10 mph68%29.98 "HgN/A
2:30 PM66 °FScattered clouds.10 mph68%29.98 "HgN/A
2:00 PM66 °FScattered clouds.8 mph68%29.98 "HgN/A
1:30 PM66 °FPartly sunny.8 mph64%29.98 "HgN/A
1:00 PM68 °FPartly sunny.7 mph60%29.98 "HgN/A
12:30 PM66 °FPartly sunny.7 mph64%29.98 "HgN/A
12:00 PM66 °FPartly sunny.6 mph60%29.98 "HgN/A
11:30 AM64 °FBroken clouds.6 mph68%29.98 "HgN/A
11:00 AM64 °FBroken clouds.6 mph68%29.98 "HgN/A
10:30 AM64 °FBroken clouds.6 mph68%29.98 "HgN/A
10:00 AM64 °FBroken clouds.6 mph64%29.95 "HgN/A
9:30 AM64 °FBroken clouds.3 mph64%29.95 "HgN/A
9:00 AM64 °FBroken clouds.3 mph64%29.95 "HgN/A
8:30 AM64 °FBroken clouds.6 mph68%29.95 "HgN/A
8:00 AM64 °FBroken clouds.8 mph68%29.92 "HgN/A
7:30 AM64 °FBroken clouds.9 mph73%29.92 "HgN/A
7:00 AM63 °FBroken clouds.6 mph64%29.92 "HgN/A
6:30 AM63 °FPassing clouds.6 mph64%29.89 "HgN/A
6:00 AM63 °FPassing clouds.7 mph64%29.89 "HgN/A
5:00 AM61 °FPartly cloudy.6 mph72%29.89 "HgN/A
4:30 AM61 °FPartly cloudy.6 mph77%29.92 "HgN/A
4:00 AM63 °FPartly cloudy.5 mph73%29.92 "HgN/A
3:30 AM63 °FPartly cloudy.2 mph73%29.92 "HgN/A
3:00 AM63 °FPartly cloudy.3 mph68%29.92 "HgN/A
2:30 AM63 °FPassing clouds.6 mph73%29.92 "HgN/A
2:00 AM63 °FPartly cloudy.5 mph73%29.92 "HgN/A
Weather by CustomWeather, © 2015

See weather overviewHow to use our weather pages